Tracking 19564 objects as of 18-Mar-2019
HD Live streaming from Space Station
objects crossing your sky now

HGS-1 (ASIASAT 3)

Track HGS-1 (ASIASAT 3) now!
HGS-1 (ASIASAT 3) is classified as:


NORAD ID: 25126
Int'l Code: 1997-086A
Perigee: 35,571.8 km
Apogee: 36,001.3 km
Inclination: 8.9 °
Period: 1,435.7 minutes
Semi major axis: 42157 km
RCS: 10.4313 m2 (large)
Launch date: December 24, 1997
Source: United States (US)
Launch site: TYURATAM MISSILE AND SPACE COMPLEX (TTMTR)
aabbcc
Your satellite tracking list
Your tracking list is empty




NASA's NSSDC Master Catalog

Two Line Element Set (TLE):
1 25126U 97086A   19076.77040971 -.00000272 +00000-0 +00000-0 0  9996
2 25126 008.8698 052.8031 0050942 336.9529 024.7923 01.00297454078580
Source of the keplerian elements: AFSPC